Погода в Терпилицах

Россия / Санкт-Петербург и Ленинградская область     59°29′13″N   29°21′44″E
темп.,
°C
ветер,
м/с
пор.,
м/с
влажн.,
%
обл.,
%
осадки,
мм/ч
давл.,
гПа
погр.,
м
18 сентября, сб
сб1800:00+4всв278599 0.0 1025160
03:00+6всв2669100 0.0 1026182
06:00+4в2575100 0.0 1026106
09:00+6в376694 0.0 1026280
12:00+10в454719 0.0 10261492
15:00+11всв4544100 0.0 10251590
18:00+9всв485694 0.0 1025855
21:00+6всв4117794 0.0 1026472
19 сентября, вс
вс1900:00+5в4117895 0.0 1027541
03:00+3всв4108498 0.0 1026394
06:00+2всв4118493 0.0 1027393
09:00+4всв5127313 0.0 1027521
12:00+8в6955100 0.0 1026957
15:00+9всв584774 0.0 10261182
18:00+8всв5958100 0.0 10261105
21:00+5всв4127173 0.0 1026537
20 сентября, пн
пн2000:00+4всв41273100 0.0 1026515
03:00+3всв51278100 0.0 1026487
06:00+3всв51281100 0.0 1026482
09:00+4всв51273100 0.0 1027548
12:00+6всв6959100 0.0 1026793
15:00+8всв6851100 0.0 10261054
18:00+6всв595877 0.0 10261025
21:00+3всв41172100 0.0 1026518
21 сентября, вт
вт2100:00+2всв41178100 0.0 1026374
03:00+1св4108197 0.0 1025325
06:00+1св3108492 0.0 1024361
09:00+4св410736 0.0 1024594
12:00+8св465352 0.0 10231029
15:00+9св464961 0.0 10221238
18:00+7св466373 0.0 1022947
21:00+3с39859 0.0 1022225
22 сентября, ср
ср2200:00+3с399112 0.0 1022203
03:00+2с27965 0.0 1021152
06:00+2с39975 0.0 1022194
09:00+5с37845 0.0 1021338
12:00+9с34575 0.0 10201020
15:00+11с34526 0.0 10191201
18:00+8ссз356610 0.0 1019311
21:00+3ссв239419 0.0 101944